This is the latest recevied weather packets stored in our database for station/object K9VSK-9. If no packets are shown the sender has not sent any weather packets the latest 10 day(s).
| Time | Temp. | Humidity | Pressure | Rain* | Wind** | Luminosity | Snow |
|---|---|---|---|---|---|---|---|
| 1777579352 | 14.44° C | 55% | 1016.7 hPa | 0 mm | - | - | - |
| 1777579052 | 14.44° C | 55% | 1016.7 hPa | 0 mm | - | - | - |
| 1777578752 | 14.44° C | 56% | 1016.7 hPa | 0 mm | - | - | - |
| 1777578451 | 14.44° C | 55% | 1016.7 hPa | 0 mm | - | - | - |
| 1777578151 | 14.44° C | 59% | 1016.7 hPa | 0 mm | - | - | - |
| 1777577851 | 13.89° C | 58% | 1016.8 hPa | 0 mm | - | - | - |
| 1777577551 | 13.89° C | 57% | 1016.8 hPa | 0 mm | - | - | - |
| 1777577250 | 13.89° C | 58% | 1017 hPa | 0 mm | - | - | - |
| 1777576950 | 14.44° C | 53% | 1017.1 hPa | 0 mm | - | - | - |
| 1777576650 | 14.44° C | 53% | 1017 hPa | 0 mm | - | - | - |
| 1777576349 | 14.44° C | 52% | 1017 hPa | 0 mm | - | - | - |
| 1777576049 | 14.44° C | 51% | 1017 hPa | 0 mm | - | - | - |
| 1777575749 | 14.44° C | 51% | 1017 hPa | 0 mm | - | - | - |
| 1777575448 | 14.44° C | 51% | 1017 hPa | 0 mm | - | - | - |
| 1777575148 | 14.44° C | 50% | 1017 hPa | 0 mm | - | - | - |
| 1777574848 | 15° C | 52% | 1017.1 hPa | 0 mm | - | - | - |
| 1777574548 | 14.44° C | 50% | 1017.1 hPa | 0 mm | - | - | - |
| 1777574249 | 15° C | 48% | 1017.1 hPa | 0 mm | - | - | - |
| 1777573947 | 15° C | 49% | 1017.1 hPa | 0 mm | - | - | - |
| 1777573647 | 15° C | 46% | 1017.1 hPa | 0 mm | - | - | - |
| 1777573347 | 15.56° C | 49% | 1016.9 hPa | 0 mm | - | - | - |
| 1777573046 | 15.56° C | 47% | 1017.1 hPa | 0 mm | - | - | - |
| 1777572746 | 15.56° C | 49% | 1017.1 hPa | 0 mm | - | - | - |
| 1777572446 | 15° C | 49% | 1017.1 hPa | 0 mm | - | - | - |
| 1777572146 | 15° C | 49% | 1017.1 hPa | 0 mm | - | - | - |
* Rain latest hour (hover to see other rain measurements)
** Current wind speed in m/s (hover to see current wind gust speed)